LFPBLIRS

Guest
Details From LFPB - Paris Le Bourget
To LIRS - GROSSETO
Flight Number -
Tags decoded
Created
Modified
Stats Distance 518 nm / 960 km
Max Altitude 0 ft / 0 m
Waypoints 2
Social Downloads 0
Likes 0
Share VATSIM

Download

Looking for another format? Having issues loading an existing format? Contact us
Advertisement - Login to hide

Notes

Requested: LFPB LIRS

Route

LFPB LIRS

ID Type Via Altitude Latitude Longitude Leg Dist Tot Dist Heading (true) Name
O LFPB APT - 0 ft / 0 m 48.96431˚ 2.43556˚ - 0 nm - Paris Le Bourget
O LIRS APT - 0 ft / 0 m 42.76028˚ 11.07198˚ 518 nm 518 nm 133° / 139° GROSSETO

Altitude Profile

Advertisement - Login to hide

Weather


0- 5 10 15 20 25 30 35+ Temperature / ° C

Clouds and Precipitation
Forecast for 2018-05-26 12:00 UTC. Updated 5 hours ago

Ground ~20,000 ft ~40,000 ft Winds

LFPB

Details ICAO LFPB (LBG)
Name Paris Le Bourget
Region France
Timezone Europe/Paris (UTC+2.0)
Stats Elevation 218 ft / 66 m (AMSL)
Location 48.964314° 2.435563°
Runways 3
Magnetic Variation 0.665° E

METAR

LFPB 261600Z AUTO 07009KT 040V100 CAVOK 26/17 Q1014 TEMPO FEW060CB

Decode

TAF

TAF LFPB 261100Z 2612/2712 12010KT CAVOK TEMPO 2615/2618 FEW060CB PROB30 TEMPO 2619/2621 VRB15G25KT 3000 TSRA SCT050CB PROB30 TEMPO 2711/2712 FEW060CB

Decode

Departure Runways

ID Width Length Bearing (true) Bearing (mag) Surface Threshold Offset Overrun Length
03 197 ft / 60 m 8,752 ft / 2,668 m 24.59° 23.92° Asphalt 0 ft / 0 m 0 ft / 0 m
07 180 ft / 55 m 9,853 ft / 3,003 m 67.59° 66.92° Concrete 984 ft / 300 m 0 ft / 0 m
09 148 ft / 45 m 6,059 ft / 1,847 m 85.09° 84.42° Asphalt 0 ft / 0 m 0 ft / 0 m
21 197 ft / 60 m 8,752 ft / 2,668 m 204.61° 203.94° Asphalt 0 ft / 0 m 0 ft / 0 m
25 180 ft / 55 m 9,853 ft / 3,003 m 247.61° 246.94° Concrete 2,956 ft / 901 m 0 ft / 0 m
27 148 ft / 45 m 6,059 ft / 1,847 m 265.11° 264.44° Asphalt 0 ft / 0 m 1,050 ft / 320 m

LIRS

Details ICAO LIRS (GRS)
Name GROSSETO
Region Italy
Timezone Europe/Rome (UTC+2.0)
Stats Elevation 15 ft / 5 m (AMSL)
Location 42.760275° 11.071980°
Runways 2
Magnetic Variation 2.858° E

METAR

LIRS 261555Z 23011KT 9999 FEW030 25/20 Q1016

Decode

TAF

Not found

Destination Runways

ID Width Length Bearing (true) Bearing (mag) Surface Threshold Offset Overrun Length
03 148 ft / 45 m 9,826 ft / 2,995 m 30.87° 28.01° Asphalt 317 ft / 97 m 0 ft / 0 m
03R 80 ft / 24 m 7,731 ft / 2,356 m 30.70° 27.84° Asphalt 0 ft / 0 m 1,091 ft / 333 m
21 148 ft / 45 m 9,826 ft / 2,995 m 210.88° 208.02° Asphalt 0 ft / 0 m 0 ft / 0 m
21L 80 ft / 24 m 7,731 ft / 2,356 m 210.71° 207.85° Asphalt 0 ft / 0 m 875 ft / 267 m

Popular Alternatives